Natchitoches, LA

11:24 AM CDT on October 18, 2017 (GMT -0500)
Natchitoches Regional

Weather History for KIER - July, 2013

Change the Weather History Date:

Sunday, July 21, 2013

  Actual Average Record
Temperature  
Mean Temperature 78 °F -  
Max Temperature 91 °F 93 °F 102 °F (1963)
Min Temperature 68 °F 72 °F 62 °F (1945)
Cooling Degree Days 14    
Growing Degree Days 28 (Base 50)    
Moisture  
Dew Point 72 °F    
Average Humidity 85    
Maximum Humidity 99    
Minimum Humidity 57    
Precipitation  
Precipitation 0.05 in - - ()
Sea Level Pressure  
Sea Level Pressure 29.97 in    
Wind  
Wind Speed 3 mph (SSW)    
Max Wind Speed 21 mph    
Max Gust Speed 29 mph    
Visibility 8 miles    
Events Rain , Thunderstorm    
Averages and records for this station are not official NWS values.
T = Trace of Precipitation, MM = Missing Value Source: NWS Daily Summary

Daily Weather History Graph

Daily Weather History Graph

Search for Another Location

Airport or City:

Trip Planner

Search our weather history database for the weather conditions in past years. The results will help you decide how hot, cold, wet, or windy it might be!

Date:

Astronomy

Jul. 21, 2013 Rise Set
Actual Time 6:21 AM CDT 8:15 PM CDT
Civil Twilight 5:54 AM CDT 8:43 PM CDT
Nautical Twilight 5:21 AM CDT 9:15 PM CDT
Astronomical Twilight 4:46 AM CDT 9:50 PM CDT
Moon 7:17 PM CDT (7/21) 5:06 AM CDT (7/21)
Length of Visible Light 14h 48m
Length of Day
13h 54m
Waxing Gibbous, 98% of the Moon is Illuminated
Jul 21
Waxing Gibbous
Jul 22
Full
Jul 29
Last Quarter
Aug 6
New
Aug 14
First Quarter

Hourly Weather History & Observations

Time (CDT) Temp. Heat Index Dew Point Humidity Pressure Visibility Wind Dir Wind Speed Gust Speed Precip Events Conditions
12:15 AM 71.6 °F - 70.2 °F 95% 29.97 in 10.0 mi Calm Calm - N/A   Clear
12:35 AM 71.4 °F - 70.0 °F 95% 29.96 in 10.0 mi Calm Calm - N/A   Clear
12:55 AM 71.6 °F - 69.8 °F 94% 29.96 in 10.0 mi Calm Calm - N/A   Clear
1:15 AM 70.3 °F - 69.4 °F 97% 29.97 in 7.0 mi SSE 3.5 mph - N/A   Clear
1:35 AM 70.3 °F - 69.4 °F 97% 29.97 in 7.0 mi Calm Calm - N/A   Clear
1:55 AM 70.7 °F - 69.4 °F 96% 29.98 in 7.0 mi Calm Calm - N/A   Clear
2:15 AM 70.3 °F - 69.6 °F 98% 29.97 in 7.0 mi Calm Calm - N/A   Clear
2:35 AM 71.1 °F - 70.0 °F 96% 29.97 in 10.0 mi SE 3.5 mph - N/A   Clear
2:55 AM 71.1 °F - 69.8 °F 96% 29.96 in 10.0 mi Calm Calm - N/A   Clear
3:15 AM 70.3 °F - 69.4 °F 97% 29.96 in 7.0 mi Calm Calm - N/A   Clear
3:35 AM 69.6 °F - 69.1 °F 98% 29.96 in 5.0 mi Calm Calm - N/A   Clear
3:55 AM 69.8 °F - 69.1 °F 98% 29.96 in 7.0 mi Calm Calm - N/A   Clear
4:15 AM 69.6 °F - 68.9 °F 98% 29.97 in 7.0 mi Calm Calm - N/A   Clear
4:35 AM 70.0 °F - 69.1 °F 97% 29.97 in 7.0 mi Calm Calm - N/A   Clear
4:55 AM 69.3 °F - 68.7 °F 98% 29.97 in 5.0 mi Calm Calm - N/A   Clear
5:15 AM 69.4 °F - 69.1 °F 99% 29.97 in 5.0 mi Calm Calm - N/A   Clear
5:35 AM 69.6 °F - 68.9 °F 98% 29.97 in 5.0 mi Calm Calm - N/A   Clear
5:55 AM 69.4 °F - 68.9 °F 98% 29.98 in 5.0 mi Calm Calm - N/A   Clear
6:15 AM 68.9 °F - 68.4 °F 98% 29.98 in 2.5 mi Calm Calm - N/A   Clear
6:35 AM 68.9 °F - 68.5 °F 99% 29.98 in 2.0 mi Calm Calm - N/A   Clear
6:55 AM 69.3 °F - 68.9 °F 99% 29.98 in 3.0 mi Calm Calm - N/A   Clear
7:15 AM 71.4 °F - 70.0 °F 95% 29.98 in 4.0 mi Calm Calm - N/A   Clear
7:35 AM 72.7 °F - 70.3 °F 92% 29.99 in 5.0 mi Calm Calm - N/A   Clear
7:55 AM 74.3 °F - 71.4 °F 91% 29.99 in 5.0 mi Calm Calm - N/A   Clear
8:15 AM 75.6 °F - 72.1 °F 89% 30.00 in 7.0 mi South 3.5 mph - N/A   Clear
8:35 AM 78.1 °F - 73.4 °F 85% 30.00 in 10.0 mi South 5.8 mph - N/A   Clear
8:55 AM 79.5 °F - 74.1 °F 83% 30.00 in 10.0 mi SSW 3.5 mph - N/A   Clear
9:15 AM 81.9 °F 88.0 °F 74.5 °F 78% 30.00 in 10.0 mi SSW 5.8 mph - N/A   Scattered Clouds
9:35 AM 82.8 °F 88.7 °F 73.2 °F 73% 30.00 in 10.0 mi SSW 9.2 mph - N/A   Clear
9:55 AM 83.8 °F 89.8 °F 72.9 °F 69% 29.99 in 10.0 mi SSW 6.9 mph - N/A   Clear
10:15 AM 84.6 °F 91.4 °F 73.6 °F 69% 29.99 in 10.0 mi SSW 5.8 mph - N/A   Scattered Clouds
10:35 AM 85.6 °F 93.0 °F 73.4 °F 67% 29.99 in 10.0 mi SW 5.8 mph - N/A   Scattered Clouds
10:55 AM 87.8 °F 95.6 °F 73.2 °F 62% 29.98 in 10.0 mi SSW 5.8 mph - N/A   Scattered Clouds
11:15 AM 87.3 °F 94.5 °F 73.0 °F 62% 29.98 in 10.0 mi SW 6.9 mph - N/A   Scattered Clouds
11:35 AM 87.4 °F 94.0 °F 72.0 °F 60% 29.98 in 10.0 mi SW 3.5 mph - N/A   Scattered Clouds
11:55 AM 89.1 °F 96.0 °F 71.8 °F 57% 29.98 in 10.0 mi SW 5.8 mph - N/A   Scattered Clouds
12:15 PM 88.5 °F 94.9 °F 71.8 °F 57% 29.97 in 10.0 mi West 6.9 mph - N/A   Scattered Clouds
1:15 PM 86.0 °F 92.2 °F 72.0 °F 63% 29.97 in 10.0 mi SSE 13.8 mph 20.7 mph N/A Thunderstorm Mostly Cloudy
1:35 PM 82.0 °F 87.2 °F 72.7 °F 73% 29.97 in 10.0 mi SSE 13.8 mph 18.4 mph N/A   Overcast
1:55 PM 81.0 °F 86.3 °F 74.3 °F 80% 29.98 in 0.8 mi SSW 6.9 mph - 0.01 in Rain , Thunderstorm Thunderstorms and Rain
2:15 PM 78.8 °F - 74.7 °F 87% 29.99 in 10.0 mi SW 5.8 mph - 0.02 in Rain , Thunderstorm Rain
2:35 PM 77.0 °F - 72.7 °F 86% 29.97 in 7.0 mi Calm Calm - 0.04 in Rain , Thunderstorm Light Thunderstorms and Rain
2:55 PM 79.3 °F - 74.5 °F 85% 29.96 in 10.0 mi South 5.8 mph - 0.04 in   Mostly Cloudy
3:15 PM 82.2 °F 89.3 °F 75.4 °F 80% 29.96 in 10.0 mi South 5.8 mph - N/A   Scattered Clouds
3:35 PM 83.1 °F 90.4 °F 74.7 °F 76% 29.94 in 10.0 mi SSW 5.8 mph - N/A   Clear
3:55 PM 84.2 °F 94.1 °F 77.0 °F 79% 29.95 in 10.0 mi South 9.2 mph - N/A Rain , Thunderstorm Light Thunderstorms and Rain
4:15 PM 84.7 °F 92.8 °F 74.8 °F 72% 29.95 in 10.0 mi South 9.2 mph - N/A   Scattered Clouds
4:35 PM 83.7 °F 91.3 °F 74.8 °F 75% 29.96 in 10.0 mi SSW 20.7 mph 28.8 mph N/A Thunderstorm Scattered Clouds
4:55 PM 83.3 °F 89.9 °F 73.9 °F 73% 29.95 in 10.0 mi SSW 10.4 mph - N/A   Overcast
5:15 PM 81.0 °F 85.2 °F 71.8 °F 74% 29.96 in 10.0 mi SSW 13.8 mph 20.7 mph N/A   Scattered Clouds
5:35 PM 80.8 °F 85.4 °F 72.9 °F 77% 29.94 in 10.0 mi South 6.9 mph - N/A   Clear
5:55 PM 80.8 °F 85.4 °F 73.0 °F 77% 29.94 in 10.0 mi SW 9.2 mph - N/A   Clear
6:15 PM 79.9 °F - 73.6 °F 81% 29.93 in 10.0 mi SSW 5.8 mph - N/A   Clear
6:35 PM 79.7 °F - 74.3 °F 83% 29.94 in 10.0 mi SW 6.9 mph - N/A   Clear
6:55 PM 80.2 °F 85.2 °F 74.5 °F 83% 29.95 in 10.0 mi SW 4.6 mph - N/A   Clear
7:15 PM 80.1 °F 84.6 °F 74.3 °F 82% 29.95 in 10.0 mi West 3.5 mph - N/A   Clear
7:35 PM 79.9 °F - 72.7 °F 79% 29.95 in 10.0 mi WSW 5.8 mph - N/A   Clear
7:55 PM 79.3 °F - 72.9 °F 80% 29.95 in 10.0 mi South 3.5 mph - N/A   Clear
8:15 PM 78.6 °F - 73.4 °F 84% 29.94 in 10.0 mi SSW 3.5 mph - N/A   Clear
8:35 PM 77.5 °F - 73.8 °F 88% 29.94 in 10.0 mi SSW 3.5 mph - N/A   Clear
8:55 PM 77.0 °F - 74.3 °F 91% 29.94 in 10.0 mi Calm Calm - N/A   Clear
9:15 PM 76.3 °F - 74.5 °F 94% 29.94 in 10.0 mi South 5.8 mph - N/A   Clear
9:35 PM 77.0 °F - 74.5 °F 92% 29.96 in 10.0 mi South 4.6 mph - N/A   Clear
9:55 PM 76.6 °F - 74.3 °F 92% 29.96 in 10.0 mi South 4.6 mph - N/A   Clear
10:15 PM 76.3 °F - 74.3 °F 94% 29.97 in 10.0 mi South 4.6 mph - N/A   Clear
10:35 PM 76.1 °F - 74.3 °F 94% 29.97 in 10.0 mi South 5.8 mph - N/A   Clear
10:55 PM 76.1 °F - 74.1 °F 94% 29.97 in 10.0 mi South 4.6 mph - N/A   Clear
11:15 PM 75.4 °F - 73.6 °F 94% 29.98 in 10.0 mi SSE 3.5 mph - N/A   Clear
11:35 PM 75.2 °F - 73.4 °F 94% 29.98 in 10.0 mi South 3.5 mph - N/A   Clear
11:55 PM 75.6 °F - 73.4 °F 93% 29.98 in 10.0 mi South 5.8 mph - N/A   Clear